W2GLD-13 Weather Reports


time (UTC)temp
C
wind
direction
speed
KPH
gust
KPH
rain 1hr
cm
rain 24hr
cm
rain mn
cm
humidity
%
barometer
mb
20260503183005 16 360 0.0 25.7 0.00 0.00 0.00 39 1010.0
20260503181506 16 360 0.0 25.7 0.00 0.00 0.00 39 1010.0
20260503180019 16 0 8.0 25.7 0.00 0.00 0.00 39 1009.7
20260503180005 13 360 0.0 20.9 0.00 0.00 0.00 45 1011.0
20260503174505 13 360 0.0 20.9 0.00 0.00 0.00 45 1011.0
20260503173005 13 360 0.0 20.9 0.00 0.00 0.00 45 1011.0
20260503171506 13 360 0.0 20.9 0.00 0.00 0.00 45 1011.0
20260503081505 2 0.0 0.0 0.00 0.00 0.00 65 1013.8
20260503071506 2 0.0 1.6 0.00 0.00 0.00 65 1014.0
20260503054505 2 0.0 0.0 0.00 0.00 0.00 68 1014.8
20260503053005 2 0.0 0.0 0.00 0.00 0.00 68 1014.8
20260503051505 2 0.0 0.0 0.00 0.00 0.00 68 1014.8
20260503050019 2 0.0 0.0 0.00 0.00 0.00 68 1013.9
20260503050006 3 0.0 0.0 0.00 0.00 0.00 67 1015.0
20260503044506 3 0.0 0.0 0.00 0.00 0.00 67 1015.0
20260503043005 3 0.0 0.0 0.00 0.00 0.00 67 1015.0
20260503041505 3 0.0 0.0 0.00 0.00 0.00 67 1015.0
20260503040019 3 0.0 0.0 0.00 0.00 0.00 67 1014.1
20260503040005 3 0.0 0.0 0.00 0.00 0.00 66 1015.2
20260503034505 3 0.0 0.0 0.00 0.00 0.00 66 1015.2
20260503033005 3 0.0 0.0 0.00 0.00 0.00 66 1015.2
20260503031505 3 0.0 0.0 0.00 0.00 0.00 66 1015.2
20260503030020 3 0.0 0.0 0.00 0.00 0.00 66 1014.3
20260503030005 5 0.0 0.0 0.00 0.00 0.00 62 1015.2
20260503024506 5 0.0 0.0 0.00 0.00 0.00 62 1015.2
20260503023006 5 0.0 0.0 0.00 0.00 0.00 62 1015.2
20260503021505 5 0.0 0.0 0.00 0.00 0.00 62 1015.2
20260503020020 5 0.0 0.0 0.00 0.00 0.00 62 1014.4
20260503020005 7 0.0 6.4 0.00 0.00 0.00 52 1014.9
20260503014505 7 0.0 6.4 0.00 0.00 0.00 52 1014.9
20260503013005 7 0.0 6.4 0.00 0.00 0.00 52 1014.9
20260503011506 7 0.0 6.4 0.00 0.00 0.00 52 1014.9
20260503010020 7 0.0 6.4 0.00 0.00 0.00 52 1014.0
20260503010005 8 360 0.0 6.4 0.00 0.00 0.00 48 1014.7
20260503004505 8 360 0.0 6.4 0.00 0.00 0.00 48 1014.7
20260503003005 8 360 0.0 6.4 0.00 0.00 0.00 48 1014.7
20260503001506 8 360 0.0 6.4 0.00 0.00 0.00 48 1014.7
20260503000020 8 0 1.6 6.4 0.00 0.00 0.00 48 1013.8
20260503000006 8 360 0.0 6.4 0.00 0.00 0.00 47 1015.0
20260502234505 8 360 0.0 6.4 0.00 0.00 0.00 47 1015.0
20260502233005 8 360 0.0 6.4 0.00 0.00 0.00 47 1015.0
20260502231505 8 360 0.0 6.4 0.00 0.00 0.00 47 1015.0
20260502230019 8 0 1.6 6.4 0.00 0.00 0.00 47 1014.0
20260502230005 8 360 0.0 12.9 0.00 0.00 0.00 46 1015.1
20260502224505 8 360 0.0 12.9 0.00 0.00 0.00 46 1015.1
20260502223005 8 360 0.0 12.9 0.00 0.00 0.00 46 1015.1
20260502221505 8 360 0.0 12.9 0.00 0.00 0.00 46 1015.1
20260502220019 8 0 1.6 12.9 0.00 0.00 0.00 46 1014.2
20260502220006 8 360 0.0 12.9 0.00 0.00 0.00 45 1015.3
20260502214506 8 360 0.0 12.9 0.00 0.00 0.00 45 1015.3
20260502213005 8 360 0.0 12.9 0.00 0.00 0.00 45 1015.3
20260502211505 8 360 0.0 12.9 0.00 0.00 0.00 45 1015.3
20260502210019 8 0 3.2 12.9 0.00 0.00 0.00 45 1014.5
20260502210005 7 360 0.0 19.3 0.00 0.00 0.00 46 1015.8
20260502204505 7 360 0.0 19.3 0.00 0.00 0.00 46 1015.8
20260502203005 7 360 0.0 19.3 0.00 0.00 0.00 46 1015.8
20260502201505 7 360 0.0 19.3 0.00 0.00 0.00 46 1015.8
20260502200019 7 0 4.8 19.3 0.00 0.00 0.00 46 1015.1
20260502200005 7 360 0.0 12.9 0.00 0.00 0.00 44 1016.3
20260502194505 7 360 0.0 12.9 0.00 0.00 0.00 44 1016.3
20260502193006 7 360 0.0 12.9 0.00 0.00 0.00 44 1016.3
20260502191506 7 360 0.0 12.9 0.00 0.00 0.00 44 1016.3
20260502190019 7 0 3.2 12.9 0.00 0.00 0.00 44 1015.6
20260502190005 7 360 0.0 12.9 0.00 0.00 0.00 46 1016.6
20260502184505 7 360 0.0 12.9 0.00 0.00 0.00 46 1016.6